THORAD AGENA D DEB, 42532

Orbit data source: Space-Track

THORAD AGENA D DEB, 42532 is space debris in SSO originally from a launch on Wed, 08 Apr 1970 UTC launched from the Air Force Western Test Range (AFWTR). Debris objects in space refer to the collection of defunct objects orbiting the Earth. Examples of debris include non-operational satellites, rocket bodies, and fragments generated from explosions, collisions, or faulty payload assembly.

Loading next visibility...
Identifier
42532, 1970-025SN
Orbit
SSO
Country
Flag of USUS
Related business
Manufacturer
Unknown
Mission
Spacecraft
Bus & Motor
Unknown
Mass
Unknown
Launch date (UTC)
1970-04-08 (56 years ago)
Launch vehicle
Unknown
Launch site
Air Force Western Test Range (AFWTR)
Object type
Payload
Rocket body
Debris
Shape & HBR
Unknown shape, 0.1 m
Radar Cross Section
Small (<0.1 m²)

Expand to show TLE details & history
Last TLE update: 20 hours ago

TLE from 20 hours ago
0 THORAD AGENA D DEB
1 42532U 70025SN  25306.00457869  .00002958  00000-0  19793-2 0  9990
2 42532  99.9270 222.0538 0001924 332.6077  27.4984 14.01827673607837
Epoch: 2025-11-02T00:06Z
TLE epoch observation values (Epoch: 2025-11-02T00:06:35.598Z)
Latitude
-0.00001°
Longitude
178.87895°
Altitude
889.081 km
Speed
7.408 km/s
True Right ascension
14h 48m 12s
True Declination
0° 00' 00"
Sunlit
Object was in daylight at epoch
Visualization orbit readout
Latitude
Unknown
Longitude
Unknown
Altitude
Unknown
Speed
Unknown
Apparent Right ascension
Unknown
Apparent Declination
Unknown
Sunlit
N/A
Visualization observer readout
Local Sidereal Time
15:28:49
Azimuth
Unknown
Elevation
Unknown
Doppler factor
Unknown
Orbital elements
Apogee altitude
886.115 km
Perigee altitude
883.32 km
Semi-major axis
7,262.855 km
Eccentricity
0.00019
Inclination
99.927°
RAAN
222.0538°
Arg. of periapsis
332.6077°
True anomaly
27.50858°
Mean anomaly
27.4984°
Eccentric anomaly
27.50349°
Mean motion
3.50657 °/min
Orbital period
102.66 mins
BSTAR
0.0019793

Documentation

Showing up to 5 results
|